Weather History for Lihue, HI

Change the Weather History Date:

Thursday, April 24, 2014

  Actual Average Record
Temperature  
Mean Temperature 75 °F 74 °F  
Max Temperature 79 °F 80 °F 85 °F (1981)
Min Temperature 71 °F 69 °F 60 °F (1958)
Degree Days  
Heating Degree Days 0 0  
Month to date heating degree days 0 0  
Since 1 July heating degree days 0 0  
Cooling Degree Days 10 9  
Month to date cooling degree days 223 215  
Year to date cooling degree days 810 849  
Growing Degree Days 25 (Base 50)    
Moisture  
Dew Point 70 °F    
Average Humidity 84    
Maximum Humidity 93    
Minimum Humidity 74    
Precipitation  
Precipitation 0.15 in 0.06 in 1.09 in (1971)
Month to date precipitation 0.50 1.88  
Year to date precipitation 12.83 13.40  
Snow  
Snow 0.00 in - - ()
Month to date snowfall 0.0  
Since 1 July snowfall 0.0  
Snow Depth 0.00 in    
Sea Level Pressure  
Sea Level Pressure 30.14 in    
Wind  
Wind Speed 18 mph (NE)    
Max Wind Speed 21 mph    
Max Gust Speed 27 mph    
Visibility 9 miles    
Events Rain    
T = Trace of Precipitation, MM = Missing Value Source: NWS Daily Summary

Daily Weather History Graph

Daily Weather History Graph

Search for Another Location

Airport:

Trip Planner

Search our weather history database for the weather conditions in past years. The results will help you decide how hot, cold, wet, or windy it might be!

Date:

Astronomy

Apr. 24, 2014 Rise Set
Actual Time 6:10 AM HST 7:00 PM HST
Civil Twilight 5:47 AM HST 7:23 PM HST
Nautical Twilight 5:20 AM HST 7:51 PM HST
Astronomical Twilight 4:52 AM HST 8:18 PM HST
Moon 2:53 AM HST (4/24) 3:01 PM HST (4/24)
Length of Visible Light 13h 36m
Length of Day
12h 50m
Waning Crescent, 22% of the Moon is Illuminated
Apr 24
Waning Crescent
Apr 28
New
May 6
First Quarter
May 14
Full
May 21
Last Quarter

Hourly Weather History & Observations

Time (HST) Temp. Dew Point Humidity Pressure Visibility Wind Dir Wind Speed Gust Speed Precip Events Conditions
12:48 AM 73.4 °F 69.8 °F 88% 30.14 in 8.0 mi NE 16.1 mph - N/A   Mostly Cloudy
12:53 AM 73.0 °F 69.1 °F 87% 30.13 in 10.0 mi NE 18.4 mph - N/A   Mostly Cloudy
1:29 AM 71.6 °F 69.8 °F 94% 30.13 in 10.0 mi ENE 15.0 mph - N/A   Scattered Clouds
1:53 AM 72.3 °F 69.1 °F 89% 30.12 in 10.0 mi ENE 17.3 mph - N/A   Mostly Cloudy
2:53 AM 72.9 °F 69.1 °F 88% 30.11 in 10.0 mi ENE 13.8 mph - N/A   Overcast
3:41 AM 71.6 °F 69.8 °F 94% 30.11 in 10.0 mi ENE 17.3 mph - N/A   Mostly Cloudy
3:50 AM 71.6 °F 69.8 °F 94% 30.11 in 10.0 mi NE 16.1 mph - N/A   Scattered Clouds
3:53 AM 71.8 °F 69.1 °F 91% 30.10 in 10.0 mi ENE 16.1 mph - N/A   Mostly Cloudy
4:03 AM 73.4 °F 69.8 °F 88% 30.11 in 10.0 mi ENE 15.0 mph - N/A   Scattered Clouds
4:42 AM 73.4 °F 69.8 °F 88% 30.12 in 10.0 mi ENE 16.1 mph - N/A   Mostly Cloudy
4:49 AM 73.4 °F 69.8 °F 88% 30.11 in 10.0 mi NE 13.8 mph - N/A   Scattered Clouds
4:53 AM 72.9 °F 69.1 °F 88% 30.11 in 10.0 mi ENE 16.1 mph - N/A   Mostly Cloudy
5:07 AM 73.4 °F 68.0 °F 83% 30.11 in 10.0 mi ENE 18.4 mph - N/A   Mostly Cloudy
5:51 AM 73.4 °F 68.0 °F 83% 30.12 in 10.0 mi ENE 20.7 mph - N/A   Mostly Cloudy
5:53 AM 72.9 °F 68.0 °F 85% 30.12 in 10.0 mi ENE 18.4 mph - N/A   Mostly Cloudy
6:00 AM 73.4 °F 68.0 °F 83% 30.12 in 10.0 mi NE 19.6 mph - N/A   Mostly Cloudy
6:53 AM 73.0 °F 68.0 °F 84% 30.14 in 10.0 mi NE 18.4 mph - 0.00 in   Overcast
7:24 AM 71.6 °F 68.0 °F 88% 30.16 in 3.0 mi NE 23.0 mph 28.8 mph 0.00 in Rain Light Rain
7:53 AM 72.0 °F 69.1 °F 91% 30.16 in 1.8 mi East 19.6 mph 26.5 mph 0.00 in Rain Light Rain
7:57 AM 71.6 °F 69.8 °F 94% 30.17 in 1.0 mi ENE 20.7 mph 26.5 mph 0.05 in Rain Heavy Rain
8:01 AM 71.6 °F 69.8 °F 94% 30.17 in 0.8 mi NE 15.0 mph 26.5 mph 0.10 in Rain Heavy Rain
8:06 AM 71.6 °F 69.8 °F 94% 30.17 in 3.0 mi NE 11.5 mph - 0.10 in Rain Light Rain
8:13 AM 71.6 °F 69.8 °F 94% 30.17 in 7.0 mi NE 21.9 mph 26.5 mph 0.11 in Rain Light Rain
8:39 AM 73.4 °F 69.8 °F 88% 30.18 in 10.0 mi NE 20.7 mph - 0.11 in   Overcast
8:53 AM 73.4 °F 69.1 °F 86% 30.17 in 10.0 mi NE 18.4 mph 26.5 mph 0.11 in   Mostly Cloudy
9:28 AM 75.2 °F 69.8 °F 83% 30.19 in 10.0 mi NE 18.4 mph - 0.00 in   Mostly Cloudy
9:53 AM 75.2 °F 70.0 °F 84% 30.19 in 10.0 mi NE 20.7 mph 25.3 mph 0.00 in   Mostly Cloudy
10:29 AM 75.2 °F 69.8 °F 83% 30.19 in 10.0 mi NE 23.0 mph 29.9 mph 0.00 in   Overcast
10:51 AM 75.2 °F 69.8 °F 83% 30.19 in 10.0 mi NE 15.0 mph - 0.00 in   Overcast
10:53 AM 75.9 °F 70.0 °F 82% 30.19 in 10.0 mi NE 17.3 mph - 0.00 in   Overcast
11:53 AM 79.0 °F 69.1 °F 72% 30.18 in 10.0 mi NE 18.4 mph 24.2 mph N/A   Mostly Cloudy
12:53 PM 73.9 °F 69.1 °F 85% 30.16 in 5.0 mi North 15.0 mph - 0.00 in Rain Light Rain
1:06 PM 75.2 °F 69.8 °F 83% 30.16 in 10.0 mi NNE 18.4 mph 23.0 mph 0.00 in   Overcast
1:15 PM 73.4 °F 69.8 °F 88% 30.16 in 2.0 mi NE 18.4 mph - 0.00 in Rain Rain
1:22 PM 73.4 °F 69.8 °F 88% 30.15 in 5.0 mi NNE 18.4 mph - 0.02 in Rain Light Rain
1:33 PM 73.4 °F 71.6 °F 94% 30.15 in 10.0 mi NNE 18.4 mph 28.8 mph 0.02 in   Overcast
1:53 PM 73.9 °F 71.1 °F 91% 30.13 in 8.0 mi NNE 17.3 mph - 0.02 in   Mostly Cloudy
2:20 PM 75.2 °F 69.8 °F 83% 30.13 in 10.0 mi NNE 17.3 mph - 0.00 in   Overcast
2:31 PM 75.2 °F 69.8 °F 83% 30.12 in 10.0 mi NNE 17.3 mph - 0.00 in   Overcast
2:35 PM 75.2 °F 69.8 °F 83% 30.12 in 10.0 mi North 16.1 mph - 0.00 in   Overcast
2:45 PM 75.2 °F 69.8 °F 83% 30.11 in 3.0 mi NNE 19.6 mph - 0.02 in Rain Light Rain
2:53 PM 75.2 °F 70.0 °F 84% 30.11 in 10.0 mi NNE 19.6 mph - 0.02 in   Overcast
3:04 PM 73.4 °F 71.6 °F 94% 30.11 in 7.0 mi NNE 19.6 mph - 0.00 in Rain Light Rain
3:26 PM - - N/A% 30.10 in 6.0 mi NNE 17.3 mph - 0.00 in   Haze
3:53 PM 75.2 °F 69.8 °F 83% 30.10 in 10.0 mi NNE 18.4 mph - 0.00 in   Mostly Cloudy
4:20 PM - - N/A% 30.10 in 9.0 mi NE 21.9 mph - 0.00 in Rain Light Rain
4:53 PM 75.0 °F 70.0 °F 84% 30.10 in 10.0 mi NE 17.3 mph - 0.00 in   Mostly Cloudy
5:16 PM 75.2 °F 69.8 °F 83% 30.10 in 10.0 mi NE 15.0 mph - N/A   Mostly Cloudy
5:53 PM 73.9 °F 69.1 °F 85% 30.11 in 10.0 mi ENE 15.0 mph - N/A   Mostly Cloudy
6:01 PM 73.4 °F 69.8 °F 88% 30.11 in 10.0 mi ENE 16.1 mph - N/A   Scattered Clouds
6:53 PM 73.0 °F 69.1 °F 87% 30.13 in 10.0 mi NE 18.4 mph - N/A   Scattered Clouds
7:53 PM 73.9 °F 69.1 °F 85% 30.14 in 10.0 mi ENE 17.3 mph - N/A   Mostly Cloudy
8:41 PM - - N/A% 30.17 in 10.0 mi ENE 16.1 mph - N/A   Overcast
8:53 PM 73.9 °F 69.1 °F 85% 30.17 in 10.0 mi ENE 16.1 mph - N/A   Overcast
9:53 PM 73.0 °F 70.0 °F 90% 30.18 in 10.0 mi NE 15.0 mph - 0.00 in   Overcast
10:26 PM - - N/A% 30.19 in 10.0 mi NE 16.1 mph - 0.00 in   Mostly Cloudy
10:33 PM - - N/A% 30.18 in 10.0 mi NE 16.1 mph - 0.00 in   Mostly Cloudy
10:53 PM - - N/A% 30.18 in 10.0 mi NE 17.3 mph - 0.00 in   Overcast
11:16 PM - - N/A% 30.18 in 10.0 mi NE 17.3 mph - 0.02 in   Mostly Cloudy
11:38 PM 73.4 °F 69.8 °F 88% 30.18 in 10.0 mi ENE 16.1 mph - 0.02 in   Mostly Cloudy
11:53 PM 72.9 °F 70.0 °F 91% 30.17 in 10.0 mi ENE 16.1 mph - 0.02 in   Overcast